星链-5333 (STARLINK-5333 )

导读

STARLINK-5333是美国太空探索技术公司星链计划中的一颗卫星,于北京时间2023年5月14日发射入轨。作为星链星座组网的组成部分,它承担着为全球提供高速互联网接入服务的任务,依托低轨轨道布局,能实现更低网络延迟,助力星链完成全球覆盖的建设目标。

基本信息
目录编号:
56507
目录名称:
STARLINK-5333
国际标识:
2023-065E
轨道中心:
EARTH
卫星名称:
星链-5333
卫星全名:
星链-5333 (STARLINK-5333 )
卫星状态:
在轨 (已飞行1209 天)
发射日期:
2023-05-14 UTC
国别 :
美国 (US)
星等 :
--
轨道信息
数据来源 国际轨道数据
星历时间: 2026-09-03T20:36:40+0800
21小时前
查看轨道信息
半长轴: 6861.191km
偏心率: 0.0001272
轨道倾角: 43.001°
近地点辐角 268.309°
升交点赤经 255.405°
平近点角 91.762°
近地点: 482.181km
远地点: 483.927km
周期: 94.267分钟
每日圈数: 15.275785
详细信息
固有亮度:
5
最大亮度:
2.5
卫星平台:
Starlink v1.5
覆盖范围:
全球
运营商:
太空探索技术公司
运营商所在国:
美国
制造商(研发单位):
太空探索技术公司
制造商所在国:
美国
使用方式:
暂无
卫星简介
星链(Starlink)计划是由太空探索技术公司(SpaceX)提出的一个巨型低轨卫星互联网星座项目,计划在2019年至2024年间在太空搭建由约1.2万颗卫星组成的“星链”网络,其中1584颗将部署在地球上空550千米处的近地轨道,并从2020年开始工作。该卫星仍在工作。
2D轨道图
3D轨道图
轨道高度分析图
轨道倾角分析图
轨道综合分析图
查看轨道综合分析图